COSMOS 252 DEB, 3549

Orbit data source: Space-Track

COSMOS 252 DEB, 3549 is space debris in LEO originally from a launch on Fri, 01 Nov 1968 UTC launched from the Tyuratam Missile And Space Complex (TTMTR). Debris objects in space refer to the collection of defunct objects orbiting the Earth. Examples of debris include non-operational satellites, rocket bodies, and fragments generated from explosions, collisions, or faulty payload assembly.

Loading next visibility...
Identifier
3549, 1968-097B
Orbit
LEO
Country
Flag of CISCIS
Related business
Manufacturer
Unknown
Mission
Spacecraft
Bus & Motor
Unknown
Mass
Unknown
Launch date (UTC)
1968-11-01 (57 years ago)
Launch vehicle
Unknown
Launch site
Tyuratam Missile And Space Complex (TTMTR)
Object type
Payload
Rocket body
Debris
Shape & HBR
Unknown
Radar Cross Section
Small (<0.1 m²)

Expand to show TLE details & history
Last TLE update: 17 hours ago

TLE from 17 hours ago
0 COSMOS 252 DEB
1 03549U 68097B   25259.59206255  .00009600  00000-0  12020-2 0  9990
2 03549  62.3033  16.8380 0271103 264.2066  92.8046 14.60113199829986
Epoch: 2025-09-16T14:12Z
TLE epoch observation values (Epoch: 2025-09-16T14:12:34.204Z)
Latitude
0.00004°
Longitude
167.91535°
Altitude
709.127 km
Speed
7.494 km/s
True Right ascension
01h 07m 21s
True Declination
0° 00' 00"
Sunlit
Object was in full shadow at epoch
Visualization orbit readout
Latitude
Unknown
Longitude
Unknown
Altitude
Unknown
Speed
Unknown
Apparent Right ascension
Unknown
Apparent Declination
Unknown
Sunlit
N/A
Visualization observer readout
Local Sidereal Time
00:00:05
Azimuth
Unknown
Elevation
Unknown
Doppler factor
Unknown
Orbital elements
Apogee altitude
883.382 km
Perigee altitude
500.05 km
Semi-major axis
7,069.853 km
Eccentricity
0.02711
Inclination
62.3033°
RAAN
16.838°
Arg. of periapsis
264.2066°
True anomaly
95.90085°
Mean anomaly
92.8046°
Eccentric anomaly
94.35342°
Mean motion
3.65113 °/min
Orbital period
98.6 mins
BSTAR
0.001202
Loading maneuver chart data...
Computing Atmospheric mass density...

Documentation

Showing up to 5 results
|